Temperature
18 18 18 18 18 18 18 18 18 18 18 18 18 18 18 18 18 18 18 18 18 18 18 18 18 18 18 18 18 18 18 18 18 18 18 18 18 18 17 17 17 17 17
18 18 18 18 18 18 17 18 18 18 18 18 18 18 18 18 18 18 18 17 17 17 17 17 17 17 17 17 17 17 17 17 17 18 18 17 17 17 17 17 17 17 17
18 18 18 17 17 17 17 17 17 18 18 18 18 18 18 18 18 17 17 17 17 17 17 17 17 17 17 17 17 17 17 17 17 17 17 17 17 17 17 17 17 17 17
18 18 17 17 17 17 17 17 17 17 17 17 17 17 17 17 17 17 17 17 17 17 17 17 17 17 17 17 17 17 17 17 17 17 17 17 17 17 17 17 17 17 17
18 17 17 17 17 17 17 17 17 17 17 17 17 17 17 17 17 17 17 17 17 17 17 17 17 17 17 17 17 17 17 17 17 17 17 17 17 17 17 17 17 17 17
18 17 17 17 17 17 17 17 17 17 17 17 17 17 17 17 17 17 17 17 17 17 17 17 17 17 17 17 17 17 17 17 17 17 17 17 17 17 17 17 17 17 17
17 17 17 17 17 17 17 16 17 17 17 17 17 17 17 17 17 17 17 17 17 17 17 17 17 17 16 17 17 16 17 17 17 17 17 17 17 17 17 17 17 17 17
17 17 17 17 17 16 16 16 16 16 16 16 16 16 16 16 16 16 16 16 16 16 16 16 16 16 16 16 16 16 16 16 16 16 16 16 16 17 17 17 17 16 16
17 17 17 17 17 16 16 16 16 16 16 16 16 16 16 16 16 16 16 16 16 16 16 16 16 16 16 16 16 16 16 16 16 16 16 16 16 16 16 16 16 16 16
17 17 17 17 16 16 16 16 16 16 16 16 16 16 16 16 16 16 16 16 16 16 16 16 16 16 16 16 16 16 16 16 16 16 16 16 16 16 16 16 16 16 16
17 17 17 17 17 16 16 16 16 16 16 16 16 16 16 16 16 16 16 16 16 16 16 16 16 16 16 16 16 16 16 16 16 16 16 16 16 16 16 16 16 16 16
17 17 17 17 17 16 16 16 16 16 16 16 16 16 16 16 16 16 16 16 16 16 16 16 16 16 16 16 16 15 15 15 15 15 15 15 15 15 15 16 16 15 15
17 17 17 17 17 17 16 16 16 16 16 16 16 16 16 16 16 16 16 16 16 15 15 15 15 15 15 15 15 15 15 15 15 15 15 15 15 15 15 15 15 15 15
18 17 17 17 17 17 16 16 16 16 16 16 16 16 16 16 16 16 16 15 15 15 15 15 15 15 15 15 15 15 15 15 15 15 15 15 15 15 15 15 15 15 15
18 17 17 17 17 17 16 16 16 16 16 16 16 16 16 16 16 15 15 15 15 15 15 15 15 15 15 15 15 15 15 15 15 15 15 15 15 15 15 15 15 15 15
18 18 17 17 17 17 16 16 16 16 16 16 16 16 15 15 15 15 15 15 15 15 15 15 15 15 15 15 15 15 15 15 15 15 15 15 15 15 15 15 15 14 15
18 18 17 17 17 17 16 16 16 16 16 16 16 16 15 15 15 15 15 15 15 15 15 15 15 15 15 15 15 14 14 14 14 14 14 14 14 14 14 14 14 14 14
18 18 18 17 17 17 16 16 16 16 16 16 16 16 15 15 15 15 15 15 15 15 15 15 15 15 15 15 14 14 14 14 14 14 14 14 14 14 14 14 14 14 14
18 18 18 17 17 17 16 16 16 16 16 16 16 15 15 15 15 15 15 15 15 15 15 15 15 15 14 14 14 14 14 14 14 14 14 14 14 14 14 14 14 14 14
18 18 18 17 17 17 16 16 16 16 16 16 16 15 15 15 15 15 15 15 15 15 15 15 14 14 14 14 14 14 14 13 13 13 13 13 13 13 13 13 13 13 13
18 18 18 17 17 17 16 16 16 16 16 16 16 16 15 15 15 15 15 15 15 15 15 15 14 14 14 14 14 14 13 13 13 13 13 13 13 13 13 13 13 13 13
18 18 18 17 17 17 17 16 16 16 16 16 16 16 15 15 15 15 15 15 15 15 15 14 14 14 14 14 14 14 13 13 13 13 13 13 13 13 13 13 13 13 13
18 18 18 18 17 17 17 16 16 16 16 16 16 16 15 15 15 15 15 15 15 15 15 14 14 14 14 14 14 14 14 13 13 13 13 13 13 13 13 13 13 13 13
18 18 18 17 17 17 17 16 16 16 16 16 16 16 15 15 15 15 15 15 15 15 15 14 14 14 14 14 14 14 14 14 13 12 12 12 12 12 12 12 12 12 12
18 18 18 17 17 17 17 16 16 16 16 16 16 16 15 15 15 15 15 15 15 15 15 14 14 14 14 14 14 14 14 14 14 13 12 12 12 12 12 12 12 12 12
18 18 18 17 17 17 17 16 16 16 16 16 16 15 15 15 15 15 15 15 15 15 15 15 14 14 14 14 14 14 14 14 14 14 13 12 12 12 12 12 12 12 12
Wind_Speed
2 1 3 5 6 6 7 8 9 9 9 10 10 10 10 10 10 10 9 9 9 9 9 9 9 9 9 9 9 9 9 9 9 9 9 9 9 8 8 8 7 6 6
2 2 4 6 6 6 6 7 9 9 9 9 10 9 9 10 10 9 9 9 8 8 9 9 9 9 9 9 9 9 9 9 9 9 9 8 8 8 7 7 7 6 6
3 4 4 5 6 6 6 7 8 9 9 9 9 9 9 9 9 8 8 8 8 8 8 8 9 8 8 8 8 9 9 9 9 10 9 8 7 8 7 7 7 7 6
4 4 4 5 5 6 6 7 7 8 8 8 8 8 8 8 8 8 8 8 8 8 8 8 8 8 8 8 9 9 9 10 10 9 8 8 6 7 8 8 8 8 7
3 4 4 5 6 6 6 7 7 7 7 7 7 7 8 8 8 8 8 7 8 8 8 8 8 8 8 9 9 10 10 11 11 9 8 7 6 7 8 7 7 7 7
3 3 3 5 6 6 6 6 7 7 7 7 7 7 7 7 7 7 6 7 8 8 8 8 8 8 9 10 11 11 11 11 10 9 8 6 6 7 7 7 7 7 7
3 2 2 4 5 5 5 5 6 6 6 6 6 6 7 7 6 6 6 7 7 8 8 8 8 9 9 10 11 11 11 11 9 8 7 6 6 7 8 8 8 7 7
3 2 2 3 4 4 4 4 5 5 5 5 6 6 6 6 6 6 6 7 7 8 8 9 8 9 10 10 11 10 10 9 8 7 7 6 7 8 8 8 8 8 8
3 2 2 2 2 3 3 4 4 4 4 5 5 6 6 6 6 6 7 7 8 8 9 9 10 11 11 11 11 12 12 11 9 7 6 6 8 9 9 9 9 9 9
2 1 1 2 2 2 3 3 3 4 4 5 6 6 6 6 6 7 7 7 8 9 10 10 11 12 12 12 12 12 12 11 10 9 7 7 9 10 10 10 9 9 9
1 1 1 1 1 1 2 3 3 3 4 5 6 6 7 6 6 6 6 7 8 9 10 11 12 12 13 13 13 12 11 10 9 8 7 8 9 10 10 10 10 10 10
3 2 2 1 1 1 2 3 3 3 4 5 5 5 6 6 6 6 7 8 9 11 12 12 13 13 12 11 11 11 10 10 9 8 8 9 9 10 11 11 11 11 10
3 2 2 2 1 1 1 2 2 3 3 4 4 5 5 5 6 6 7 7 9 10 10 11 12 11 10 9 9 10 10 10 9 9 10 11 10 10 11 11 11 11 11
3 3 3 2 2 1 1 1 2 2 2 2 3 5 5 3 4 4 5 6 7 7 8 8 8 9 10 10 10 10 10 9 10 10 11 13 12 11 11 12 12 12 12
4 4 3 3 2 2 2 1 2 2 2 2 3 4 5 3 2 3 4 5 6 6 6 6 7 7 7 9 9 10 9 10 11 11 11 14 14 14 14 13 12 12 13
4 4 4 4 3 2 2 2 1 2 2 3 3 4 5 4 3 3 3 4 5 6 7 7 7 6 6 7 7 8 9 9 10 11 12 13 16 16 15 15 14 13 14
5 4 4 5 3 3 3 2 2 2 3 2 3 4 5 6 5 4 3 3 4 6 8 8 8 7 6 6 6 7 8 9 9 11 12 12 13 15 17 16 16 15 16
4 4 4 5 4 4 3 2 2 2 3 3 3 3 5 6 6 5 3 3 5 7 7 5 5 6 6 6 5 5 6 7 9 10 12 13 13 13 15 18 18 17 17
4 4 4 4 4 4 3 2 3 3 3 2 3 3 4 5 6 6 4 4 7 6 4 5 4 4 5 6 6 6 6 6 6 9 10 11 12 13 13 15 17 18 17
3 4 4 4 4 4 3 3 2 3 2 2 3 3 5 5 6 6 4 5 6 5 4 4 5 5 5 5 6 7 6 5 6 6 6 8 10 11 12 13 13 14 16
3 3 4 5 4 4 3 2 2 1 1 1 1 3 5 5 6 6 4 4 4 4 5 5 5 6 4 4 5 5 5 6 6 5 6 6 8 10 11 12 12 12 12
5 4 5 5 5 5 4 3 2 2 1 1 1 3 3 4 5 5 5 4 4 5 5 5 5 4 2 2 3 3 2 4 5 6 5 5 6 8 9 10 11 11 12
5 6 6 5 5 5 5 4 3 3 3 2 1 1 1 3 5 5 6 5 4 4 5 4 5 5 3 1 2 3 3 2 1 4 5 5 5 5 6 8 10 11 11
6 5 5 5 4 4 5 6 6 4 3 2 2 2 2 3 4 5 6 5 5 4 4 4 4 3 4 2 1 2 2 4 3 1 3 4 5 5 5 6 7 9 10
4 4 4 4 4 4 5 6 6 4 3 2 2 3 2 2 3 4 5 5 4 4 4 4 4 3 3 3 3 2 3 3 3 3 1 2 3 4 4 5 5 7 8
2 2 3 4 4 4 5 6 6 6 5 4 3 3 2 1 2 3 4 4 4 4 4 4 4 4 3 3 3 3 3 3 3 3 3 1 1 2 3 4 5 5 7
Wind_Direction
271 249 139 120 108 96 92 99 101 103 101 100 99 98 98 99 101 104 102 99 97 97 94 92 91 90 90 91 91 91 90 87 87 89 88 85 81 80 83 80 79 73 81
169 143 132 120 112 103 97 99 101 102 100 99 99 98 99 98 99 101 102 98 96 94 90 88 86 87 87 88 88 89 91 88 87 89 84 77 78 79 80 79 80 79 75
119 120 128 121 115 108 104 105 104 104 102 100 99 97 98 98 96 99 101 98 98 96 91 89 87 85 85 85 87 89 88 86 86 84 76 62 66 77 77 76 75 74 73
121 119 128 127 121 116 111 112 109 106 104 103 99 96 95 96 95 95 97 96 95 94 91 90 88 84 84 87 89 91 88 84 85 82 68 58 57 72 74 71 71 71 69
117 119 126 127 123 119 114 111 108 106 104 103 102 98 94 92 91 89 89 91 93 93 91 91 88 85 86 89 89 93 87 81 77 74 67 60 54 69 72 68 68 67 64
115 116 136 134 128 125 123 119 112 106 104 103 101 97 93 92 91 89 91 92 92 92 90 88 88 87 88 90 90 89 86 81 74 68 62 56 57 68 68 65 62 62 58
122 107 132 137 132 125 122 118 117 114 107 103 100 96 94 92 90 85 86 88 90 91 89 86 86 90 90 91 89 88 85 81 73 66 57 52 62 69 67 64 61 59 55
131 110 99 130 124 119 116 114 111 114 112 107 100 98 96 91 87 80 82 88 91 92 89 85 84 91 92 91 90 87 82 77 70 62 58 54 66 68 66 64 60 57 58
112 103 62 84 102 107 108 107 105 104 103 106 101 97 90 85 83 81 80 87 91 91 88 84 85 88 89 88 87 84 79 72 61 53 59 58 66 66 66 63 60 58 55
112 122 104 76 82 80 86 99 96 94 90 92 90 87 79 73 74 73 74 84 92 91 88 87 86 88 88 85 86 82 75 63 55 48 47 60 64 64 64 62 60 57 53
173 169 145 103 71 82 90 95 80 78 78 84 85 81 72 61 60 62 73 79 84 84 83 85 87 86 83 83 82 77 69 58 53 45 44 61 64 65 63 60 58 56 54
210 206 173 181 190 84 95 85 70 61 66 78 79 75 70 62 57 63 68 73 76 77 75 78 83 80 77 74 71 69 64 58 50 40 45 59 63 65 63 60 59 57 56
203 201 180 187 186 133 94 87 76 69 74 85 88 85 82 69 60 61 63 61 63 69 71 74 76 74 76 76 72 66 61 57 47 40 45 55 61 65 63 61 59 58 56
182 203 194 180 180 165 114 88 86 82 84 89 97 105 98 80 69 68 68 66 66 73 77 78 81 78 77 77 75 69 61 55 47 40 41 50 55 60 63 62 60 58 56
186 206 203 176 179 167 125 120 103 99 109 121 113 115 120 108 90 76 77 77 76 80 83 84 85 81 79 75 74 70 61 55 51 46 40 48 54 56 59 60 60 59 58
193 204 194 180 184 168 159 152 140 136 132 123 125 130 128 122 107 93 85 83 80 84 87 92 92 87 80 77 70 66 60 56 52 50 45 44 50 53 54 56 58 58 59
197 193 185 181 170 168 173 170 151 152 133 122 128 134 132 128 122 118 109 98 96 98 98 95 88 85 82 75 67 62 61 58 56 51 49 46 46 49 51 52 54 57 59
186 185 188 176 163 172 172 157 136 126 118 119 125 127 132 134 135 127 121 110 108 103 102 100 93 86 79 75 68 56 53 52 53 54 54 51 49 46 47 51 53 55 56
185 181 180 164 161 170 159 130 114 105 104 115 118 121 132 134 138 132 121 119 117 105 99 109 92 97 94 85 75 60 50 48 46 55 54 52 51 49 48 47 49 50 50
177 175 171 164 159 147 123 99 81 82 82 95 113 134 138 138 140 132 123 121 120 110 103 105 102 89 95 96 85 67 52 48 47 45 46 51 50 50 49 48 45 44 46
169 172 172 166 162 145 134 136 134 148 165 121 109 120 131 139 141 135 133 125 122 122 128 124 113 101 92 100 90 67 46 47 49 42 43 49 48 48 51 48 46 44 42
194 187 180 178 174 169 165 159 145 137 142 139 101 96 119 135 142 143 138 133 128 124 127 130 126 116 107 96 110 102 57 28 29 35 35 47 41 46 49 47 46 44 42
202 201 197 192 182 174 160 130 102 80 69 69 83 113 114 134 136 136 141 138 138 138 148 150 141 135 139 88 86 132 136 161 27 19 32 39 36 41 41 44 44 42 42
215 205 196 190 184 174 158 153 152 152 158 186 177 158 127 120 122 128 133 139 144 145 150 156 145 140 141 147 82 68 118 143 138 76 19 25 35 40 34 41 39 40 42
206 196 189 180 179 172 168 166 161 159 165 149 131 127 117 99 106 123 133 139 147 150 152 146 137 143 148 156 155 135 102 83 101 133 124 22 32 28 32 36 40 40 41
181 177 177 174 182 171 167 169 170 168 160 148 147 147 138 113 106 124 137 147 153 153 157 159 154 155 156 151 153 155 155 153 158 141 147 139 69 10 25 33 36 36 40
Height
1523 1523 1523 1523 1523 1523 1523 1524 1524 1524 1524 1524 1525 1525 1525 1525 1526 1526 1527 1527 1527 1528 1528 1528 1529 1529 1529 1529 1530 1530 1530 1531 1531 1531 1531 1532 1532 1532 1532 1533 1533 1533 1533
1524 1523 1523 1523 1523 1524 1524 1525 1525 1525 1525 1525 1525 1526 1526 1526 1527 1527 1527 1528 1528 1528 1529 1529 1529 1530 1530 1530 1531 1531 1531 1532 1532 1532 1532 1533 1533 1533 1533 1533 1533 1533 1533
1524 1524 1524 1524 1524 1524 1525 1525 1525 1526 1526 1526 1526 1527 1527 1527 1528 1528 1528 1529 1529 1529 1529 1530 1530 1531 1531 1532 1532 1532 1533 1533 1533 1533 1533 1533 1534 1534 1534 1534 1534 1534 1534
1525 1525 1524 1525 1525 1525 1525 1526 1526 1526 1527 1527 1527 1527 1528 1528 1528 1529 1529 1529 1530 1530 1530 1531 1531 1532 1532 1533 1533 1533 1534 1534 1534 1534 1534 1534 1534 1534 1535 1534 1534 1534 1534
1526 1525 1525 1525 1525 1526 1526 1527 1527 1527 1528 1528 1528 1528 1529 1529 1529 1529 1530 1530 1530 1531 1531 1531 1532 1532 1533 1534 1534 1534 1535 1535 1535 1535 1535 1535 1535 1535 1535 1535 1535 1535 1534
1526 1526 1526 1526 1526 1527 1527 1528 1528 1528 1528 1529 1529 1529 1530 1530 1530 1530 1531 1531 1531 1532 1532 1532 1533 1533 1534 1535 1535 1535 1535 1536 1536 1536 1536 1536 1536 1536 1536 1536 1535 1535 1535
1527 1527 1527 1527 1527 1528 1528 1528 1529 1529 1529 1530 1530 1530 1530 1531 1531 1531 1532 1532 1532 1532 1533 1533 1534 1535 1535 1536 1536 1536 1537 1537 1537 1537 1537 1537 1537 1536 1536 1536 1536 1535 1535
1528 1528 1528 1528 1528 1529 1529 1529 1530 1530 1530 1531 1531 1531 1531 1532 1532 1532 1533 1533 1533 1534 1534 1534 1535 1536 1536 1537 1537 1538 1538 1538 1538 1538 1538 1538 1537 1537 1537 1536 1536 1536 1535
1529 1529 1529 1529 1529 1530 1530 1530 1530 1531 1531 1532 1532 1532 1532 1533 1533 1533 1534 1534 1534 1535 1535 1536 1537 1537 1538 1538 1539 1539 1539 1539 1539 1539 1538 1538 1538 1538 1537 1537 1537 1536 1536
1530 1530 1530 1530 1530 1531 1531 1531 1531 1531 1532 1532 1533 1533 1534 1534 1534 1534 1535 1535 1536 1536 1537 1537 1538 1539 1539 1540 1540 1540 1540 1540 1540 1540 1539 1539 1539 1539 1538 1538 1537 1537 1536
1531 1531 1531 1531 1532 1532 1532 1532 1532 1533 1533 1534 1534 1535 1535 1535 1536 1536 1536 1537 1537 1538 1538 1539 1539 1540 1541 1541 1541 1542 1542 1541 1541 1541 1541 1540 1540 1540 1539 1539 1538 1538 1537
1531 1532 1532 1532 1533 1533 1533 1533 1534 1534 1534 1535 1535 1536 1536 1537 1537 1537 1538 1538 1538 1539 1540 1540 1541 1541 1542 1542 1543 1543 1543 1543 1543 1542 1542 1542 1541 1541 1540 1540 1539 1538 1538
1532 1532 1533 1533 1533 1534 1534 1534 1535 1535 1536 1536 1537 1537 1537 1538 1538 1539 1539 1539 1540 1541 1541 1542 1543 1543 1543 1544 1544 1544 1544 1544 1544 1543 1543 1543 1542 1542 1541 1541 1540 1540 1539
1532 1533 1534 1534 1534 1535 1535 1535 1536 1536 1537 1537 1538 1538 1539 1539 1540 1540 1541 1541 1542 1542 1543 1544 1544 1545 1545 1546 1546 1546 1546 1545 1545 1545 1545 1544 1544 1543 1543 1542 1541 1541 1540
1533 1534 1534 1535 1535 1535 1536 1536 1537 1537 1538 1538 1539 1539 1540 1540 1541 1541 1542 1542 1543 1544 1544 1545 1546 1546 1546 1547 1547 1547 1547 1547 1547 1546 1546 1545 1545 1545 1544 1543 1543 1542 1541
1533 1534 1534 1535 1535 1536 1536 1537 1537 1538 1539 1539 1540 1540 1541 1541 1542 1542 1543 1544 1545 1545 1546 1546 1547 1547 1548 1548 1548 1549 1549 1548 1548 1548 1547 1547 1546 1546 1545 1545 1544 1543 1543
1532 1533 1534 1535 1536 1537 1537 1538 1538 1539 1539 1540 1541 1541 1542 1542 1543 1543 1544 1545 1546 1546 1547 1548 1548 1549 1549 1550 1550 1550 1550 1550 1550 1549 1549 1548 1548 1548 1547 1546 1545 1545 1544
1532 1533 1534 1535 1536 1537 1537 1538 1539 1539 1540 1541 1541 1542 1543 1543 1544 1544 1545 1546 1547 1547 1548 1549 1549 1550 1551 1551 1551 1552 1552 1552 1552 1551 1551 1550 1550 1549 1549 1548 1547 1546 1545
1531 1532 1533 1534 1536 1536 1537 1539 1539 1540 1541 1541 1542 1542 1543 1544 1544 1545 1546 1547 1548 1548 1549 1550 1551 1551 1552 1552 1553 1553 1553 1554 1554 1553 1553 1552 1552 1551 1551 1550 1549 1548 1547
1531 1532 1533 1534 1535 1536 1537 1538 1539 1540 1541 1542 1542 1543 1544 1544 1545 1545 1546 1547 1548 1549 1550 1551 1552 1552 1553 1553 1554 1554 1555 1555 1555 1555 1555 1555 1554 1553 1553 1552 1551 1550 1549
1529 1531 1532 1533 1534 1535 1536 1537 1539 1540 1541 1542 1542 1543 1544 1544 1545 1546 1546 1548 1549 1550 1551 1551 1552 1553 1554 1555 1555 1556 1557 1557 1557 1557 1557 1556 1556 1555 1554 1554 1553 1552 1551
1528 1529 1530 1532 1533 1534 1535 1537 1538 1539 1540 1541 1542 1543 1544 1545 1545 1546 1547 1548 1549 1550 1551 1552 1553 1554 1555 1556 1556 1556 1558 1560 1559 1559 1558 1558 1558 1557 1556 1556 1555 1554 1553
1526 1528 1529 1530 1532 1533 1534 1536 1537 1538 1540 1541 1542 1543 1544 1545 1545 1546 1547 1548 1549 1550 1551 1552 1554 1554 1555 1556 1557 1558 1558 1558 1559 1560 1560 1559 1559 1558 1558 1557 1557 1556 1555
1524 1526 1527 1529 1530 1532 1533 1534 1535 1536 1538 1539 1541 1542 1543 1544 1545 1546 1547 1548 1549 1551 1552 1553 1554 1555 1555 1556 1557 1557 1558 1558 1559 1560 1561 1560 1560 1560 1559 1559 1558 1557 1556
1523 1524 1526 1527 1529 1530 1531 1533 1534 1535 1537 1539 1540 1542 1543 1544 1545 1546 1547 1548 1549 1551 1552 1553 1553 1555 1556 1556 1557 1557 1558 1558 1559 1559 1560 1561 1561 1561 1560 1560 1559 1559 1558
1521 1522 1524 1525 1527 1528 1530 1531 1533 1534 1536 1538 1539 1541 1542 1543 1544 1545 1546 1548 1549 1550 1551 1552 1553 1554 1555 1556 1557 1557 1557 1558 1558 1558 1559 1560 1561 1561 1561 1561 1561 1560 1559